Time,TemperatureF,DewpointF,PressureIn,WindDirection,WindDirectionDegrees,WindSpeedMPH,WindSpeedGustMPH,Humidity,HourlyPrecipIn,Conditions,Clouds,dailyrainin,SoftwareType,DateUTC
2013-03-03 00:00:00,41.9,27.3,29.97,NNW,329,0.0,0.0,56,0.00,,,0.00,Wunderground v.1.15,2013-03-03 05:00:00,
2013-03-03 00:05:00,41.6,27.1,29.97,NNW,329,0.0,0.0,56,0.00,,,0.00,Wunderground v.1.15,2013-03-03 05:05:00,
2013-03-03 00:15:00,41.2,27.1,29.97,NNW,329,0.0,0.0,57,0.00,,,0.00,Wunderground v.1.15,2013-03-03 05:15:00,
2013-03-03 00:25:00,40.8,27.6,29.97,NNW,329,0.0,0.0,59,0.00,,,0.00,Wunderground v.1.15,2013-03-03 05:25:00,
2013-03-03 00:30:00,40.6,27.4,29.97,NNW,329,0.0,0.0,59,0.00,,,0.00,Wunderground v.1.15,2013-03-03 05:30:00,
2013-03-03 00:35:00,40.3,27.1,29.97,NNW,329,0.0,0.0,59,0.00,,,0.00,Wunderground v.1.15,2013-03-03 05:35:00,
2013-03-03 00:45:00,39.9,27.5,29.97,NNW,328,0.0,0.0,61,0.00,,,0.00,Wunderground v.1.15,2013-03-03 05:45:00,
2013-03-03 00:50:00,39.9,27.5,29.97,NNW,329,0.0,0.0,61,0.00,,,0.00,Wunderground v.1.15,2013-03-03 05:50:00,
2013-03-03 01:00:00,39.6,28.0,29.97,NNW,329,0.0,0.0,63,0.00,,,0.00,Wunderground v.1.15,2013-03-03 06:00:00,
2013-03-03 01:05:00,39.5,27.9,29.97,NNW,329,0.0,0.0,63,0.00,,,0.00,Wunderground v.1.15,2013-03-03 06:05:00,
2013-03-03 01:15:00,39.2,27.7,29.97,NNW,329,0.0,0.0,63,0.00,,,0.00,Wunderground v.1.15,2013-03-03 06:15:00,
2013-03-03 01:25:00,39.1,27.9,29.97,NNW,329,0.0,0.0,64,0.00,,,0.00,Wunderground v.1.15,2013-03-03 06:25:00,
2013-03-03 01:35:00,39.1,27.9,29.97,NNW,328,0.0,0.0,64,0.00,,,0.00,Wunderground v.1.15,2013-03-03 06:35:00,
2013-03-03 01:45:00,39.2,28.0,29.97,NNW,329,0.0,0.0,64,0.00,,,0.00,Wunderground v.1.15,2013-03-03 06:45:00,
2013-03-03 01:55:00,39.5,28.3,29.97,NNW,329,0.0,0.0,64,0.00,,,0.00,Wunderground v.1.15,2013-03-03 06:55:00,
2013-03-03 02:05:00,39.6,28.0,29.97,NNW,329,0.0,0.0,63,0.00,,,0.00,Wunderground v.1.15,2013-03-03 07:05:00,
2013-03-03 02:15:00,39.8,28.2,29.97,NNW,329,0.0,0.0,63,0.00,,,0.00,Wunderground v.1.15,2013-03-03 07:15:00,
2013-03-03 02:20:00,39.6,28.0,29.97,NNW,329,0.0,0.0,63,0.00,,,0.00,Wunderground v.1.15,2013-03-03 07:20:00,
2013-03-03 02:30:00,39.5,27.9,29.97,NNW,329,0.0,0.0,63,0.00,,,0.00,Wunderground v.1.15,2013-03-03 07:30:00,
2013-03-03 02:40:00,39.1,27.9,29.97,NNW,329,0.0,0.0,64,0.00,,,0.00,Wunderground v.1.15,2013-03-03 07:40:00,
2013-03-03 02:50:00,38.5,27.7,29.97,NNW,328,0.0,0.0,65,0.00,,,0.00,Wunderground v.1.15,2013-03-03 07:50:00,
2013-03-03 03:00:00,38.0,27.6,29.95,NNW,329,0.0,0.0,66,0.00,,,0.00,Wunderground v.1.15,2013-03-03 08:00:00,
2013-03-03 03:05:00,37.9,27.5,29.95,NNW,329,0.0,0.0,66,0.00,,,0.00,Wunderground v.1.15,2013-03-03 08:05:00,
2013-03-03 03:15:00,37.6,27.6,29.95,NNW,328,0.0,0.0,67,0.00,,,0.00,Wunderground v.1.15,2013-03-03 08:15:00,
2013-03-03 03:25:00,37.5,27.9,29.95,NNW,329,0.0,0.0,68,0.00,,,0.00,Wunderground v.1.15,2013-03-03 08:25:00,
2013-03-03 03:35:00,37.3,27.7,29.96,NNW,329,0.0,0.0,68,0.00,,,0.00,Wunderground v.1.15,2013-03-03 08:35:00,
2013-03-03 03:45:00,37.0,27.8,29.96,NNW,329,0.0,0.0,69,0.00,,,0.00,Wunderground v.1.15,2013-03-03 08:45:00,
2013-03-03 03:55:00,36.8,27.6,29.96,NNW,329,0.0,0.0,69,0.00,,,0.00,Wunderground v.1.15,2013-03-03 08:55:00,
2013-03-03 04:05:00,36.3,27.8,29.95,NNW,329,0.0,0.0,71,0.00,,,0.00,Wunderground v.1.15,2013-03-03 09:05:00,
2013-03-03 04:15:00,35.9,27.4,29.96,NNW,329,0.0,0.0,71,0.00,,,0.00,Wunderground v.1.15,2013-03-03 09:15:00,
2013-03-03 04:20:00,35.9,27.4,29.96,NNW,329,0.0,0.0,71,0.00,,,0.00,Wunderground v.1.15,2013-03-03 09:20:00,
2013-03-03 04:30:00,35.8,27.7,29.96,NNW,329,0.0,0.0,72,0.00,,,0.00,Wunderground v.1.15,2013-03-03 09:30:00,
2013-03-03 04:40:00,35.6,27.8,29.96,NNW,329,0.0,0.0,73,0.00,,,0.00,Wunderground v.1.15,2013-03-03 09:40:00,
2013-03-03 04:50:00,35.5,28.0,29.96,NNW,329,0.0,0.0,74,0.00,,,0.00,Wunderground v.1.15,2013-03-03 09:50:00,
2013-03-03 05:00:00,35.9,28.1,29.97,NNW,329,0.0,0.0,73,0.00,,,0.00,Wunderground v.1.15,2013-03-03 10:00:00,
2013-03-03 05:05:00,36.0,28.2,29.97,NNW,329,0.0,0.0,73,0.00,,,0.00,Wunderground v.1.15,2013-03-03 10:05:00,
2013-03-03 05:15:00,36.5,28.3,29.97,West,275,0.0,0.0,72,0.00,,,0.00,Wunderground v.1.15,2013-03-03 10:15:00,
2013-03-03 05:25:00,36.6,28.1,29.97,West,275,0.0,0.0,71,0.00,,,0.00,Wunderground v.1.15,2013-03-03 10:25:00,
2013-03-03 05:35:00,36.8,28.6,29.97,West,275,0.0,0.0,72,0.00,,,0.00,Wunderground v.1.15,2013-03-03 10:35:00,
2013-03-03 05:45:00,37.2,29.0,29.97,West,276,0.0,0.0,72,0.00,,,0.00,Wunderground v.1.15,2013-03-03 10:45:00,
2013-03-03 05:55:00,37.5,28.9,29.97,West,276,0.0,0.0,71,0.00,,,0.00,Wunderground v.1.15,2013-03-03 10:55:00,
2013-03-03 06:05:00,37.6,28.7,29.97,West,276,0.0,0.0,70,0.00,,,0.00,Wunderground v.1.15,2013-03-03 11:05:00,
2013-03-03 06:15:00,37.8,28.9,29.98,West,276,0.0,0.0,70,0.00,,,0.00,Wunderground v.1.15,2013-03-03 11:15:00,
2013-03-03 06:25:00,37.9,29.0,29.98,West,276,0.0,0.0,70,0.00,,,0.00,Wunderground v.1.15,2013-03-03 11:25:00,
2013-03-03 06:35:00,37.9,29.0,29.98,West,276,0.0,0.0,70,0.00,,,0.00,Wunderground v.1.15,2013-03-03 11:35:00,
2013-03-03 06:45:00,38.0,29.1,29.98,West,276,0.0,0.0,70,0.00,,,0.00,Wunderground v.1.15,2013-03-03 11:45:00,
2013-03-03 06:50:00,38.0,29.1,29.98,NNW,347,0.0,0.0,70,0.00,,,0.00,Wunderground v.1.15,2013-03-03 11:50:00,
2013-03-03 07:00:00,38.3,29.7,29.99,NNW,347,0.0,0.0,71,0.00,,,0.00,Wunderground v.1.15,2013-03-03 12:00:00,
2013-03-03 07:05:00,38.5,29.6,29.99,NNW,347,0.0,0.0,70,0.00,,,0.00,Wunderground v.1.15,2013-03-03 12:05:00,
2013-03-03 07:15:00,38.8,29.5,29.99,WSW,254,0.0,0.0,69,0.00,,,0.00,Wunderground v.1.15,2013-03-03 12:15:00,
2013-03-03 07:20:00,38.9,29.6,29.99,WSW,254,0.0,0.0,69,0.00,,,0.00,Wunderground v.1.15,2013-03-03 12:20:00,
2013-03-03 07:35:00,39.2,29.2,29.99,NW,317,0.0,0.0,67,0.00,,,0.00,Wunderground v.1.15,2013-03-03 12:35:00,
2013-03-03 07:45:00,39.6,29.5,30.00,West,261,0.0,0.0,67,0.00,,,0.00,Wunderground v.1.15,2013-03-03 12:45:00,
2013-03-03 07:50:00,39.8,29.4,30.00,NW,322,0.0,0.0,66,0.00,,,0.00,Wunderground v.1.15,2013-03-03 12:50:00,
2013-03-03 08:00:00,40.1,28.9,30.00,NNE,19,0.0,1.0,64,0.00,,,0.00,Wunderground v.1.15,2013-03-03 13:00:00,
2013-03-03 08:05:00,40.2,28.6,30.00,WNW,296,0.0,1.0,63,0.00,,,0.00,Wunderground v.1.15,2013-03-03 13:05:00,
2013-03-03 08:15:00,40.3,28.3,30.00,NW,313,0.0,0.0,62,0.00,,,0.00,Wunderground v.1.15,2013-03-03 13:15:00,
2013-03-03 08:25:00,40.5,28.9,30.00,North,360,0.0,2.0,63,0.00,,,0.00,Wunderground v.1.15,2013-03-03 13:25:00,
2013-03-03 08:35:00,40.8,28.0,30.00,NNE,22,1.0,1.0,60,0.00,,,0.00,Wunderground v.1.15,2013-03-03 13:35:00,
2013-03-03 08:45:00,41.1,27.9,30.00,NE,39,0.0,2.0,59,0.00,,,0.00,Wunderground v.1.15,2013-03-03 13:45:00,
2013-03-03 08:55:00,41.5,27.8,30.00,NNW,340,2.0,2.0,58,0.00,,,0.00,Wunderground v.1.15,2013-03-03 13:55:00,
2013-03-03 09:05:00,42.2,28.0,30.00,NE,49,1.0,1.0,57,0.00,,,0.00,Wunderground v.1.15,2013-03-03 14:05:00,
2013-03-03 09:15:00,42.3,27.3,30.01,North,355,2.0,2.0,55,0.00,,,0.00,Wunderground v.1.15,2013-03-03 14:15:00,
2013-03-03 09:20:00,42.6,27.1,30.01,North,355,2.0,2.0,54,0.00,,,0.00,Wunderground v.1.15,2013-03-03 14:20:00,
2013-03-03 09:30:00,43.2,27.2,30.01,North,355,2.0,2.0,53,0.00,,,0.00,Wunderground v.1.15,2013-03-03 14:30:00,
2013-03-03 09:40:00,43.9,27.4,30.01,NNE,13,1.0,1.0,52,0.00,,,0.00,Wunderground v.1.15,2013-03-03 14:40:00,
2013-03-03 09:50:00,44.3,27.3,30.02,West,264,0.0,2.0,51,0.00,,,0.00,Wunderground v.1.15,2013-03-03 14:50:00,
2013-03-03 10:00:00,44.2,25.7,30.02,North,355,2.0,2.0,48,0.00,,,0.00,Wunderground v.1.15,2013-03-03 15:00:00,
2013-03-03 10:05:00,44.5,25.5,30.02,NW,325,1.0,2.0,47,0.00,,,0.00,Wunderground v.1.15,2013-03-03 15:05:00,
2013-03-03 10:15:00,44.6,26.1,30.02,North,355,1.0,1.0,48,0.00,,,0.00,Wunderground v.1.15,2013-03-03 15:15:00,
2013-03-03 10:25:00,44.9,25.9,30.02,WSW,246,1.0,4.0,47,0.00,,,0.00,Wunderground v.1.15,2013-03-03 15:25:00,
2013-03-03 10:35:00,44.9,25.9,30.02,WSW,255,1.0,1.0,47,0.00,,,0.00,Wunderground v.1.15,2013-03-03 15:35:00,
2013-03-03 10:40:00,45.2,26.1,30.02,NE,49,1.0,1.0,47,0.00,,,0.00,Wunderground v.1.15,2013-03-03 15:40:00,
2013-03-03 10:50:00,45.5,25.9,30.02,NW,313,1.0,1.0,46,0.00,,,0.00,Wunderground v.1.15,2013-03-03 15:50:00,
2013-03-03 11:00:00,46.0,26.4,30.02,WSW,257,1.0,3.0,46,0.00,,,0.00,Wunderground v.1.15,2013-03-03 16:00:00,
2013-03-03 11:05:00,46.1,26.4,30.02,West,259,1.0,3.0,46,0.00,,,0.00,Wunderground v.1.15,2013-03-03 16:05:00,
2013-03-03 11:15:00,46.5,26.8,30.02,NW,320,1.0,4.0,46,0.00,,,0.00,Wunderground v.1.15,2013-03-03 16:15:00,
2013-03-03 11:25:00,47.4,27.1,30.02,West,276,1.0,1.0,45,0.00,,,0.00,Wunderground v.1.15,2013-03-03 16:25:00,
2013-03-03 11:35:00,47.4,26.0,30.01,NW,324,1.0,1.0,43,0.00,,,0.00,Wunderground v.1.15,2013-03-03 16:35:00,
2013-03-03 11:45:00,47.1,26.3,30.01,SSE,164,2.0,2.0,44,0.00,,,0.00,Wunderground v.1.15,2013-03-03 16:45:00,
2013-03-03 11:55:00,47.0,26.2,30.01,WSW,250,2.0,2.0,44,0.00,,,0.00,Wunderground v.1.15,2013-03-03 16:55:00,
2013-03-03 12:05:00,47.6,26.7,30.00,NW,312,1.0,2.0,44,0.00,,,0.00,Wunderground v.1.15,2013-03-03 17:05:00,
2013-03-03 12:15:00,47.6,27.3,30.00,NW,317,1.0,2.0,45,0.00,,,0.00,Wunderground v.1.15,2013-03-03 17:15:00,
2013-03-03 12:25:00,47.9,25.9,30.00,West,275,1.0,2.0,42,0.00,,,0.00,Wunderground v.1.15,2013-03-03 17:25:00,
2013-03-03 12:30:00,47.9,25.9,29.99,West,264,2.0,2.0,42,0.00,,,0.00,Wunderground v.1.15,2013-03-03 17:30:00,
2013-03-03 12:40:00,48.0,27.1,29.99,North,9,1.0,1.0,44,0.00,,,0.00,Wunderground v.1.15,2013-03-03 17:40:00,
2013-03-03 12:50:00,48.6,26.5,29.99,WNW,284,1.0,1.0,42,0.00,,,0.00,Wunderground v.1.15,2013-03-03 17:50:00,
2013-03-03 13:00:00,48.9,26.2,29.98,WSW,254,1.0,1.0,41,0.00,,,0.00,Wunderground v.1.15,2013-03-03 18:00:00,
2013-03-03 13:05:00,48.8,26.1,29.98,SSW,209,2.0,7.0,41,0.00,,,0.00,Wunderground v.1.15,2013-03-03 18:05:00,
2013-03-03 13:15:00,49.1,26.4,29.97,NW,313,2.0,2.0,41,0.00,,,0.00,Wunderground v.1.15,2013-03-03 18:15:00,
2013-03-03 13:20:00,49.2,26.5,29.97,WNW,284,2.0,2.0,41,0.00,,,0.00,Wunderground v.1.15,2013-03-03 18:20:00,
2013-03-03 13:30:00,49.2,26.5,29.97,SSW,196,3.0,3.0,41,0.00,,,0.00,Wunderground v.1.15,2013-03-03 18:30:00,
2013-03-03 13:40:00,50.5,26.4,29.97,NW,323,3.0,4.0,39,0.00,,,0.00,Wunderground v.1.15,2013-03-03 18:40:00,
2013-03-03 13:45:00,50.5,25.8,29.96,WSW,237,2.0,4.0,38,0.00,,,0.00,Wunderground v.1.15,2013-03-03 18:45:00,
2013-03-03 13:55:00,51.0,26.9,29.96,WSW,254,2.0,2.0,39,0.00,,,0.00,Wunderground v.1.15,2013-03-03 18:55:00,
2013-03-03 14:00:00,51.1,26.3,29.96,NNW,341,3.0,3.0,38,0.00,,,0.00,Wunderground v.1.15,2013-03-03 19:00:00,
2013-03-03 14:05:00,51.3,26.5,29.96,West,269,2.0,3.0,38,0.00,,,0.00,Wunderground v.1.15,2013-03-03 19:05:00,
2013-03-03 14:15:00,51.6,26.8,29.95,WSW,257,3.0,4.0,38,0.00,,,0.00,Wunderground v.1.15,2013-03-03 19:15:00,
2013-03-03 14:20:00,51.6,26.1,29.95,West,271,4.0,4.0,37,0.00,,,0.00,Wunderground v.1.15,2013-03-03 19:20:00,
2013-03-03 14:30:00,50.4,26.3,29.95,NW,324,1.0,2.0,39,0.00,,,0.00,Wunderground v.1.15,2013-03-03 19:30:00,
2013-03-03 14:40:00,50.4,27.6,29.95,WSW,248,1.0,6.0,41,0.00,,,0.00,Wunderground v.1.15,2013-03-03 19:40:00,
2013-03-03 14:50:00,50.2,26.8,29.95,WNW,287,3.0,6.0,40,0.00,,,0.00,Wunderground v.1.15,2013-03-03 19:50:00,
2013-03-03 14:55:00,51.7,26.2,29.95,WSW,243,3.0,6.0,37,0.00,,,0.00,Wunderground v.1.15,2013-03-03 19:55:00,
2013-03-03 15:05:00,51.3,25.9,29.95,NNW,328,5.0,5.0,37,0.00,,,0.00,Wunderground v.1.15,2013-03-03 20:05:00,
2013-03-03 15:15:00,51.6,26.8,29.95,West,265,4.0,4.0,38,0.00,,,0.00,Wunderground v.1.15,2013-03-03 20:15:00,
2013-03-03 15:20:00,51.7,25.6,29.95,WNW,294,3.0,4.0,36,0.00,,,0.00,Wunderground v.1.15,2013-03-03 20:20:00,
2013-03-03 15:30:00,51.7,26.9,29.95,WNW,294,3.0,3.0,38,0.00,,,0.00,Wunderground v.1.15,2013-03-03 20:30:00,
2013-03-03 15:40:00,52.0,26.5,29.95,West,279,2.0,2.0,37,0.00,,,0.00,Wunderground v.1.15,2013-03-03 20:40:00,
2013-03-03 15:50:00,51.7,26.2,29.96,West,260,3.0,3.0,37,0.00,,,0.00,Wunderground v.1.15,2013-03-03 20:50:00,
2013-03-03 16:00:00,50.5,25.8,29.96,NW,319,3.0,3.0,38,0.00,,,0.00,Wunderground v.1.15,2013-03-03 21:00:00,
2013-03-03 16:05:00,50.5,26.4,29.96,WSW,247,2.0,3.0,39,0.00,,,0.00,Wunderground v.1.15,2013-03-03 21:05:00,
2013-03-03 16:15:00,50.5,25.8,29.95,WNW,288,3.0,7.0,38,0.00,,,0.00,Wunderground v.1.15,2013-03-03 21:15:00,
2013-03-03 16:20:00,50.7,26.0,29.95,West,263,3.0,3.0,38,0.00,,,0.00,Wunderground v.1.15,2013-03-03 21:20:00,
2013-03-03 16:30:00,50.8,25.4,29.95,WSW,248,2.0,2.0,37,0.00,,,0.00,Wunderground v.1.15,2013-03-03 21:30:00,
2013-03-03 16:40:00,51.0,25.6,29.95,NW,316,1.0,3.0,37,0.00,,,0.00,Wunderground v.1.15,2013-03-03 21:40:00,
2013-03-03 16:45:00,50.7,26.0,29.95,WSW,248,1.0,3.0,38,0.00,,,0.00,Wunderground v.1.15,2013-03-03 21:45:00,
2013-03-03 16:50:00,50.2,25.5,29.95,WSW,241,2.0,2.0,38,0.00,,,0.00,Wunderground v.1.15,2013-03-03 21:50:00,
2013-03-03 17:00:00,50.1,26.1,29.96,West,262,2.0,2.0,39,0.00,,,0.00,Wunderground v.1.15,2013-03-03 22:00:00,
2013-03-03 17:05:00,49.9,25.9,29.96,West,280,2.0,2.0,39,0.00,,,0.00,Wunderground v.1.15,2013-03-03 22:05:00,
2013-03-03 17:15:00,49.8,25.8,29.96,WSW,252,2.0,5.0,39,0.00,,,0.00,Wunderground v.1.15,2013-03-03 22:15:00,
2013-03-03 17:20:00,49.6,26.8,29.96,NW,306,2.0,2.0,41,0.00,,,0.00,Wunderground v.1.15,2013-03-03 22:20:00,
2013-03-03 17:30:00,49.4,26.1,29.96,WSW,245,1.0,1.0,40,0.00,,,0.00,Wunderground v.1.15,2013-03-03 22:30:00,
2013-03-03 17:40:00,49.4,26.7,29.96,West,266,0.0,2.0,41,0.00,,,0.00,Wunderground v.1.15,2013-03-03 22:40:00,
2013-03-03 17:45:00,49.2,26.5,29.97,West,269,1.0,2.0,41,0.00,,,0.00,Wunderground v.1.15,2013-03-03 22:45:00,
2013-03-03 17:55:00,48.6,25.9,29.97,West,279,1.0,1.0,41,0.00,,,0.00,Wunderground v.1.15,2013-03-03 22:55:00,
2013-03-03 18:05:00,47.9,26.5,29.97,SW,228,1.0,5.0,43,0.00,,,0.00,Wunderground v.1.15,2013-03-03 23:05:00,
2013-03-03 18:15:00,47.4,26.6,29.98,WSW,248,0.0,1.0,44,0.00,,,0.00,Wunderground v.1.15,2013-03-03 23:15:00,
2013-03-03 18:25:00,46.8,26.6,29.98,WNW,291,0.0,0.0,45,0.00,,,0.00,Wunderground v.1.15,2013-03-03 23:25:00,
2013-03-03 18:35:00,46.4,26.7,29.99,NW,309,0.0,0.0,46,0.00,,,0.00,Wunderground v.1.15,2013-03-03 23:35:00,
2013-03-03 18:45:00,45.8,27.2,30.00,NW,306,0.0,0.0,48,0.00,,,0.00,Wunderground v.1.15,2013-03-03 23:45:00,
2013-03-03 18:55:00,45.2,27.2,30.00,NW,306,0.0,0.0,49,0.00,,,0.00,Wunderground v.1.15,2013-03-03 23:55:00,
2013-03-03 19:05:00,44.5,27.5,30.01,West,279,0.0,0.0,51,0.00,,,0.00,Wunderground v.1.15,2013-03-04 00:05:00,
2013-03-03 19:15:00,44.1,27.6,30.02,SW,228,0.0,0.0,52,0.00,,,0.00,Wunderground v.1.15,2013-03-04 00:15:00,
2013-03-03 19:25:00,43.5,27.5,30.02,SW,228,0.0,0.0,53,0.00,,,0.00,Wunderground v.1.15,2013-03-04 00:25:00,
2013-03-03 19:35:00,43.1,27.6,30.03,SW,228,0.0,0.0,54,0.00,,,0.00,Wunderground v.1.15,2013-03-04 00:35:00,
2013-03-03 19:45:00,42.5,27.9,30.03,SW,228,0.0,0.0,56,0.00,,,0.00,Wunderground v.1.15,2013-03-04 00:45:00,
2013-03-03 19:55:00,42.1,28.4,30.03,SW,228,0.0,0.0,58,0.00,,,0.00,Wunderground v.1.15,2013-03-04 00:55:00,
2013-03-03 20:00:00,41.8,28.5,30.04,SW,228,0.0,0.0,59,0.00,,,0.00,Wunderground v.1.15,2013-03-04 01:00:00,
2013-03-03 20:05:00,41.6,28.3,30.04,SW,228,0.0,0.0,59,0.00,,,0.00,Wunderground v.1.15,2013-03-04 01:05:00,
2013-03-03 20:15:00,41.2,28.4,30.05,SW,228,0.0,0.0,60,0.00,,,0.00,Wunderground v.1.15,2013-03-04 01:15:00,
2013-03-03 20:25:00,40.8,28.4,30.05,SW,228,0.0,0.0,61,0.00,,,0.00,Wunderground v.1.15,2013-03-04 01:25:00,
2013-03-03 20:30:00,40.6,28.6,30.05,SW,228,0.0,0.0,62,0.00,,,0.00,Wunderground v.1.15,2013-03-04 01:30:00,
2013-03-03 20:40:00,40.2,28.6,30.05,SW,228,0.0,0.0,63,0.00,,,0.00,Wunderground v.1.15,2013-03-04 01:40:00,
2013-03-03 20:50:00,39.9,28.7,30.06,SW,228,0.0,0.0,64,0.00,,,0.00,Wunderground v.1.15,2013-03-04 01:50:00,
2013-03-03 21:00:00,39.5,28.7,30.07,SW,228,0.0,0.0,65,0.00,,,0.00,Wunderground v.1.15,2013-03-04 02:00:00,
2013-03-03 21:05:00,39.2,28.4,30.07,SW,228,0.0,0.0,65,0.00,,,0.00,Wunderground v.1.15,2013-03-04 02:05:00,
2013-03-03 21:15:00,38.9,28.5,30.07,SW,228,0.0,0.0,66,0.00,,,0.00,Wunderground v.1.15,2013-03-04 02:15:00,
2013-03-03 21:20:00,38.8,28.8,30.07,SW,228,0.0,0.0,67,0.00,,,0.00,Wunderground v.1.15,2013-03-04 02:20:00,
2013-03-03 21:30:00,38.5,28.5,30.08,SW,228,0.0,0.0,67,0.00,,,0.00,Wunderground v.1.15,2013-03-04 02:30:00,
2013-03-03 21:40:00,38.0,28.4,30.08,SW,228,0.0,0.0,68,0.00,,,0.00,Wunderground v.1.15,2013-03-04 02:40:00,
2013-03-03 21:50:00,37.8,28.5,30.08,SW,228,0.0,0.0,69,0.00,,,0.00,Wunderground v.1.15,2013-03-04 02:50:00,
2013-03-03 22:00:00,37.3,28.1,30.08,SW,228,0.0,0.0,69,0.00,,,0.00,Wunderground v.1.15,2013-03-04 03:00:00,
2013-03-03 22:05:00,37.2,28.3,30.08,SW,228,0.0,0.0,70,0.00,,,0.00,Wunderground v.1.15,2013-03-04 03:05:00,
2013-03-03 22:15:00,36.8,28.6,30.08,SW,228,0.0,0.0,72,0.00,,,0.00,Wunderground v.1.15,2013-03-04 03:15:00,
2013-03-03 22:25:00,36.3,28.1,30.08,SW,228,0.0,0.0,72,0.00,,,0.00,Wunderground v.1.15,2013-03-04 03:25:00,
2013-03-03 22:30:00,36.0,28.5,30.09,SW,228,0.0,0.0,74,0.00,,,0.00,Wunderground v.1.15,2013-03-04 03:30:00,
2013-03-03 22:40:00,35.8,28.6,30.09,SW,228,0.0,0.0,75,0.00,,,0.00,Wunderground v.1.15,2013-03-04 03:40:00,
2013-03-03 22:50:00,35.5,28.7,30.09,SW,228,0.0,0.0,76,0.00,,,0.00,Wunderground v.1.15,2013-03-04 03:50:00,
2013-03-03 22:55:00,35.2,28.7,30.09,SW,228,0.0,0.0,77,0.00,,,0.00,Wunderground v.1.15,2013-03-04 03:55:00,
2013-03-03 23:05:00,34.7,28.2,30.09,SW,228,0.0,0.0,77,0.00,,,0.00,Wunderground v.1.15,2013-03-04 04:05:00,
2013-03-03 23:15:00,34.4,28.2,30.10,SW,228,0.0,0.0,78,0.00,,,0.00,Wunderground v.1.15,2013-03-04 04:15:00,
2013-03-03 23:20:00,34.1,28.3,30.10,SW,228,0.0,0.0,79,0.00,,,0.00,Wunderground v.1.15,2013-03-04 04:20:00,
2013-03-03 23:30:00,33.8,28.0,30.10,SW,228,0.0,0.0,79,0.00,,,0.00,Wunderground v.1.15,2013-03-04 04:30:00,
2013-03-03 23:40:00,33.5,28.0,30.10,SW,228,0.0,0.0,80,0.00,,,0.00,Wunderground v.1.15,2013-03-04 04:40:00,
2013-03-03 23:45:00,33.4,27.9,30.10,SW,228,0.0,0.0,80,0.00,,,0.00,Wunderground v.1.15,2013-03-04 04:45:00,
2013-03-03 23:55:00,33.1,27.9,30.10,SW,228,0.0,0.0,81,0.00,,,0.00,Wunderground v.1.15,2013-03-04 04:55:00,